Time,TemperatureF,DewpointF,PressureIn,WindDirection,WindDirectionDegrees,WindSpeedMPH,WindSpeedGustMPH,Humidity,HourlyPrecipIn,Conditions,Clouds,dailyrainin,SolarRadiationWatts/m^2,SoftwareType,DateUTC
2017-04-24 00:02:00,36.0,28.5,30.10,ENE,64,7.0,7.0,74,0.00,,,0.00,0,Wunderground v.1.15,2017-04-24 05:02:00,
2017-04-24 00:12:00,36.0,28.5,30.10,NNE,20,7.0,10.0,74,0.00,,,0.00,0,Wunderground v.1.15,2017-04-24 05:12:00,
2017-04-24 00:22:00,35.9,28.4,30.10,NE,47,7.0,7.0,74,0.00,,,0.00,0,Wunderground v.1.15,2017-04-24 05:22:00,
2017-04-24 00:32:00,35.8,28.6,30.10,NNE,31,7.0,7.0,75,0.00,,,0.00,0,Wunderground v.1.15,2017-04-24 05:32:00,
2017-04-24 00:42:00,35.6,28.8,30.10,NE,55,7.0,7.0,76,0.00,,,0.00,0,Wunderground v.1.15,2017-04-24 05:42:00,
2017-04-24 00:52:00,35.5,29.0,30.10,ENE,72,7.0,10.0,77,0.00,,,0.00,0,Wunderground v.1.15,2017-04-24 05:52:00,
2017-04-24 01:02:00,35.3,29.1,30.10,NE,48,6.0,8.0,78,0.00,,,0.00,0,Wunderground v.1.15,2017-04-24 06:02:00,
2017-04-24 01:12:00,35.2,29.3,30.09,ENE,59,7.0,7.0,79,0.00,,,0.00,0,Wunderground v.1.15,2017-04-24 06:12:00,
2017-04-24 01:22:00,35.0,29.1,30.09,NE,35,7.0,7.0,79,0.00,,,0.00,0,Wunderground v.1.15,2017-04-24 06:22:00,
2017-04-24 01:32:00,35.0,29.5,30.09,NE,45,7.0,9.0,80,0.00,,,0.00,0,Wunderground v.1.15,2017-04-24 06:32:00,
2017-04-24 01:42:00,35.0,29.8,30.09,NE,37,7.0,10.0,81,0.00,,,0.00,0,Wunderground v.1.15,2017-04-24 06:42:00,
2017-04-24 01:52:00,34.9,30.3,30.09,NE,51,6.0,7.0,83,0.00,,,0.00,0,Wunderground v.1.15,2017-04-24 06:52:00,
2017-04-24 02:02:00,34.7,30.1,30.08,NE,55,5.0,5.0,83,0.00,,,0.00,0,Wunderground v.1.15,2017-04-24 07:02:00,
2017-04-24 02:12:00,34.7,30.1,30.07,ENE,59,6.0,6.0,83,0.00,,,0.00,0,Wunderground v.1.15,2017-04-24 07:12:00,
2017-04-24 02:22:00,34.6,30.6,30.07,ENE,76,5.0,9.0,85,0.00,,,0.00,0,Wunderground v.1.15,2017-04-24 07:22:00,
2017-04-24 02:32:00,34.7,30.4,30.07,ENE,58,6.0,6.0,84,0.00,,,0.00,0,Wunderground v.1.15,2017-04-24 07:32:00,
2017-04-24 02:42:00,34.7,30.7,30.07,ENE,72,5.0,6.0,85,0.00,,,0.00,0,Wunderground v.1.15,2017-04-24 07:42:00,
2017-04-24 02:52:00,34.6,30.3,30.07,ENE,58,5.0,5.0,84,0.00,,,0.00,0,Wunderground v.1.15,2017-04-24 07:52:00,
2017-04-24 03:02:00,34.4,30.1,30.06,ENE,69,5.0,7.0,84,0.00,,,0.00,0,Wunderground v.1.15,2017-04-24 08:02:00,
2017-04-24 03:22:00,34.3,30.3,30.06,ENE,68,4.0,7.0,85,0.00,,,0.00,0,Wunderground v.1.15,2017-04-24 08:22:00,
2017-04-24 03:32:00,34.3,30.8,30.06,ENE,71,5.0,5.0,87,0.00,,,0.00,0,Wunderground v.1.15,2017-04-24 08:32:00,
2017-04-24 03:42:00,34.3,30.8,30.05,East,79,5.0,5.0,87,0.00,,,0.00,0,Wunderground v.1.15,2017-04-24 08:42:00,
2017-04-24 03:52:00,34.1,30.9,30.05,East,92,4.0,4.0,88,0.00,,,0.00,0,Wunderground v.1.15,2017-04-24 08:52:00,
2017-04-24 04:02:00,34.3,31.4,30.04,NE,55,4.0,4.0,89,0.00,,,0.00,0,Wunderground v.1.15,2017-04-24 09:02:00,
2017-04-24 04:12:00,34.6,31.7,30.04,East,82,4.0,4.0,89,0.00,,,0.00,0,Wunderground v.1.15,2017-04-24 09:12:00,
2017-04-24 04:22:00,34.7,32.1,30.04,East,80,3.0,3.0,90,0.00,,,0.00,0,Wunderground v.1.15,2017-04-24 09:22:00,
2017-04-24 04:32:00,34.7,32.1,30.03,ENE,71,3.0,3.0,90,0.00,,,0.00,0,Wunderground v.1.15,2017-04-24 09:32:00,
2017-04-24 04:42:00,34.9,32.3,30.03,ENE,64,3.0,3.0,90,0.00,,,0.00,0,Wunderground v.1.15,2017-04-24 09:42:00,
2017-04-24 04:52:00,34.7,32.1,30.03,ENE,61,3.0,3.0,90,0.00,,,0.00,0,Wunderground v.1.15,2017-04-24 09:52:00,
2017-04-24 05:02:00,34.6,32.2,30.03,ENE,62,2.0,2.0,91,0.00,,,0.00,0,Wunderground v.1.15,2017-04-24 10:02:00,
2017-04-24 05:12:00,34.4,32.3,30.03,South,175,4.0,4.0,92,0.00,,,0.00,0,Wunderground v.1.15,2017-04-24 10:12:00,
2017-04-24 05:22:00,34.6,32.5,30.03,ENE,66,3.0,3.0,92,0.00,,,0.00,0,Wunderground v.1.15,2017-04-24 10:22:00,
2017-04-24 05:32:00,34.4,32.3,30.03,ENE,69,2.0,2.0,92,0.00,,,0.00,0,Wunderground v.1.15,2017-04-24 10:32:00,
2017-04-24 05:42:00,34.3,32.2,30.02,ENE,72,1.0,1.0,92,0.00,,,0.00,0,Wunderground v.1.15,2017-04-24 10:42:00,
2017-04-24 05:52:00,34.0,31.9,30.02,ENE,69,0.0,0.0,92,0.00,,,0.00,0,Wunderground v.1.15,2017-04-24 10:52:00,
2017-04-24 06:02:00,34.3,32.5,30.03,ENE,61,0.0,2.0,93,0.00,,,0.00,7,Wunderground v.1.15,2017-04-24 11:02:00,
2017-04-24 06:12:00,34.6,32.8,30.02,NE,52,1.0,1.0,93,0.00,,,0.00,21,Wunderground v.1.15,2017-04-24 11:12:00,
2017-04-24 06:22:00,35.0,33.2,30.02,NE,54,1.0,1.0,93,0.00,,,0.00,33,Wunderground v.1.15,2017-04-24 11:22:00,
2017-04-24 06:32:00,35.6,33.8,30.03,NE,54,0.0,0.0,93,0.00,,,0.00,49,Wunderground v.1.15,2017-04-24 11:32:00,
2017-04-24 06:42:00,36.3,34.2,30.03,ENE,62,0.0,0.0,92,0.00,,,0.00,88,Wunderground v.1.15,2017-04-24 11:42:00,
2017-04-24 06:52:00,37.3,34.9,30.03,ENE,62,0.0,0.0,91,0.00,,,0.00,114,Wunderground v.1.15,2017-04-24 11:52:00,
2017-04-24 07:02:00,38.0,35.0,30.04,NE,55,1.0,6.0,89,0.00,,,0.00,134,Wunderground v.1.15,2017-04-24 12:02:00,
2017-04-24 07:22:00,39.5,36.0,30.04,ESE,113,3.0,3.0,87,0.00,,,0.00,188,Wunderground v.1.15,2017-04-24 12:22:00,
2017-04-24 07:32:00,40.6,36.1,30.03,ESE,104,3.0,6.0,84,0.00,,,0.00,220,Wunderground v.1.15,2017-04-24 12:32:00,
2017-04-24 07:42:00,41.3,36.2,30.03,SSE,168,4.0,4.0,82,0.00,,,0.00,259,Wunderground v.1.15,2017-04-24 12:42:00,
2017-04-24 07:52:00,41.8,36.1,30.03,East,99,3.0,5.0,80,0.00,,,0.00,273,Wunderground v.1.15,2017-04-24 12:52:00,
2017-04-24 08:02:00,42.2,37.1,30.03,ENE,71,3.0,3.0,82,0.00,,,0.00,299,Wunderground v.1.15,2017-04-24 13:02:00,
2017-04-24 08:12:00,42.6,36.9,30.04,ENE,73,4.0,6.0,80,0.00,,,0.00,329,Wunderground v.1.15,2017-04-24 13:12:00,
2017-04-24 08:22:00,43.3,37.9,30.04,ENE,68,3.0,3.0,81,0.00,,,0.00,366,Wunderground v.1.15,2017-04-24 13:22:00,
2017-04-24 08:32:00,43.8,37.7,30.04,ENE,66,4.0,7.0,79,0.00,,,0.00,389,Wunderground v.1.15,2017-04-24 13:32:00,
2017-04-24 08:42:00,44.2,37.1,30.04,SE,130,5.0,5.0,76,0.00,,,0.00,422,Wunderground v.1.15,2017-04-24 13:42:00,